Theta_e
343 343 342 341 342 343 344 345 345 346 347 348 349 350 352 352 351 351 350 348 349 347 346 347 346 345 347 346 346 346 345 346 346 345 342 335 333 335 336 337 337 341 344 344 345 346 346 346 347 347 348 348 347 347 347 347 347 348 348 348 348 348 348 347 347 347 347 346 346 347 346 346 346 345 345 346 346 345 346 346 345 344 344 343 342
345 344 344 344 345 345 346 347 348 348 350 351 351 352 352 351 349 349 348 348 349 346 345 348 348 345 345 345 347 347 346 346 346 346 344 337 334 334 334 335 335 337 340 341 341 342 342 342 342 342 343 344 345 345 346 347 348 348 348 349 349 348 347 347 347 347 347 346 346 347 346 345 346 346 346 346 346 347 347 347 345 343 345 346 346
346 346 346 346 347 348 348 348 350 349 351 353 352 351 350 349 349 349 347 347 348 346 347 348 348 347 344 345 345 346 346 346 347 347 347 343 340 338 337 337 337 338 340 340 340 339 339 338 338 338 338 338 339 340 341 342 343 343 344 345 345 344 343 344 345 346 346 345 345 345 345 345 345 344 345 345 346 347 347 347 346 344 346 348 348
345 346 346 347 347 348 349 349 350 350 352 352 351 349 348 349 350 349 347 347 347 346 347 348 348 348 346 346 345 346 346 346 347 349 348 346 344 343 343 342 342 342 342 343 343 343 342 341 340 339 340 340 340 340 340 340 340 341 341 342 342 342 342 343 344 344 344 344 344 343 344 344 344 344 344 344 345 347 347 347 347 347 347 348 348
344 345 346 347 348 348 349 349 349 351 351 349 349 348 349 351 352 351 348 348 349 348 348 348 347 347 347 347 346 346 346 345 347 348 347 347 346 345 345 344 345 345 345 345 346 346 346 345 344 343 343 342 342 342 343 343 343 343 343 343 343 343 343 343 343 343 343 344 344 345 345 346 347 347 348 348 348 349 348 349 348 348 349 349 350
344 345 346 347 348 349 349 349 349 351 350 348 349 349 350 352 353 353 351 349 350 349 348 348 347 347 347 347 348 347 346 347 348 347 346 347 346 344 345 345 344 345 345 346 346 346 347 347 347 347 346 346 346 345 346 346 346 346 346 346 346 346 346 345 345 345 345 345 346 347 349 350 351 351 352 352 351 351 350 351 351 350 352 351 353
345 345 346 347 349 350 350 350 350 350 349 348 349 351 351 351 351 353 353 351 350 349 348 347 347 348 347 346 347 346 346 347 347 346 346 346 344 344 344 345 345 344 344 344 345 345 346 346 347 348 348 348 348 348 348 348 348 348 348 348 348 348 348 348 348 347 347 347 348 349 351 353 353 354 355 354 353 353 353 353 354 354 355 354 354
345 345 346 348 350 351 350 349 350 350 348 348 350 350 351 351 351 352 352 350 350 348 348 347 347 348 347 347 348 347 347 347 346 347 347 345 344 345 344 344 344 344 344 344 343 344 345 346 346 347 348 348 348 348 348 349 349 349 349 349 349 350 350 350 351 350 350 349 350 351 354 354 355 355 356 355 355 355 355 355 355 354 354 353 352
345 346 347 348 350 351 350 350 350 349 348 349 350 350 350 352 351 350 349 349 349 348 348 348 347 347 347 348 348 347 346 346 346 346 345 344 344 345 344 344 344 344 343 343 343 343 344 345 345 346 347 348 348 348 348 349 349 350 350 350 350 350 350 350 350 350 350 350 352 353 354 355 355 355 355 355 355 354 353 352 352 350 348 347 346
346 346 347 348 349 350 351 351 350 348 350 351 351 352 351 352 353 351 348 348 348 347 347 348 347 347 347 347 347 346 346 345 344 344 344 344 344 344 344 343 343 343 343 343 343 343 345 345 346 347 348 348 348 349 349 349 351 351 350 351 351 349 349 349 349 349 350 351 353 354 354 355 354 355 355 353 351 348 348 347 342 338 335 335 336
347 347 348 348 350 350 350 351 350 349 352 354 354 354 351 350 352 352 349 348 346 345 346 347 347 347 346 348 347 345 345 344 344 343 343 343 344 343 344 344 343 343 343 342 343 343 345 345 346 347 348 349 349 349 350 351 353 351 351 353 351 349 349 350 350 351 352 352 353 353 353 354 354 354 352 348 347 347 346 339 330 326 325 325 325
349 349 348 349 350 350 350 350 350 350 353 355 355 354 350 348 349 350 352 351 347 346 346 347 348 347 347 348 347 345 344 344 344 345 344 344 343 342 344 344 342 342 342 342 343 343 344 345 346 347 347 348 349 349 351 352 353 350 351 353 350 349 350 350 351 351 352 352 352 352 352 352 351 349 347 346 349 349 345 335 324 322 322 320 319
349 350 350 350 350 350 350 350 351 351 352 353 354 353 351 350 350 350 351 351 350 349 346 347 350 349 350 349 347 345 344 345 346 346 346 346 344 342 343 344 343 344 342 342 342 342 343 343 344 345 346 347 348 350 352 352 352 350 351 351 348 349 349 349 350 350 349 349 348 349 349 348 345 344 346 349 351 350 347 340 327 321 320 319 319
350 350 350 350 350 350 351 351 352 352 352 352 352 353 353 353 352 352 352 350 350 348 345 348 351 350 351 351 349 347 346 347 347 347 347 347 345 344 343 344 346 345 343 341 341 341 341 342 342 343 345 347 348 351 351 352 351 350 350 350 348 349 350 350 350 349 347 346 346 345 344 343 341 345 349 351 351 350 350 347 335 323 319 319 318
351 350 350 351 350 351 352 352 352 352 352 352 352 353 354 355 355 354 352 351 350 348 346 348 350 352 353 352 350 349 349 349 348 347 348 347 347 347 344 343 344 343 341 341 341 341 340 340 342 342 344 348 349 351 351 351 350 349 350 351 349 350 352 352 353 352 350 348 346 345 344 343 343 347 351 351 351 350 349 349 344 332 322 319 318
351 351 351 351 351 352 353 353 352 352 352 351 353 354 355 356 356 354 352 351 351 350 349 350 350 352 354 353 352 351 350 349 349 349 348 348 348 347 344 343 343 341 341 342 341 341 340 340 341 341 345 349 351 352 350 350 351 349 349 351 350 350 352 353 354 354 354 352 350 348 346 345 346 348 351 351 351 349 348 349 347 341 329 320 318
351 352 352 351 351 353 353 353 353 352 352 353 354 354 354 356 356 354 354 352 351 351 351 352 351 350 353 354 353 352 350 349 350 351 349 347 348 348 346 344 343 341 341 342 342 342 340 341 343 344 347 351 352 353 350 348 351 351 350 351 351 351 352 353 354 354 355 355 354 352 350 348 347 348 350 351 350 348 348 348 348 346 338 325 318
351 351 352 351 351 352 352 353 354 352 352 353 354 353 353 355 355 355 355 351 351 353 351 351 352 351 352 353 352 351 352 351 352 353 352 349 348 349 348 346 344 343 344 343 343 343 341 342 346 348 350 351 353 353 349 347 351 352 351 351 351 351 351 352 353 354 354 355 355 355 354 351 349 348 349 350 350 349 348 348 348 348 345 335 322
351 351 352 352 351 352 352 352 354 354 352 353 354 354 353 355 354 354 354 351 352 355 353 351 353 353 353 353 352 351 350 351 352 352 353 353 350 348 348 348 347 347 347 345 345 344 342 342 347 349 350 351 352 352 349 348 350 352 352 353 352 352 352 352 352 353 354 355 355 356 356 355 352 350 350 350 350 349 348 348 348 348 348 343 331
350 350 351 351 351 352 352 351 352 354 353 353 354 353 353 354 354 353 352 351 352 354 354 354 353 353 354 353 352 351 349 350 352 352 353 353 351 350 349 349 349 349 349 347 345 344 343 342 346 350 351 351 351 351 350 349 351 353 353 352 353 353 353 352 352 353 353 354 354 355 356 356 355 353 351 351 350 350 349 349 349 348 348 347 341
348 348 349 349 350 352 352 351 352 353 353 354 354 353 353 353 353 353 352 352 352 353 355 356 354 353 355 355 355 353 351 352 353 353 352 352 351 351 351 351 350 351 351 349 345 343 343 342 345 350 351 351 351 351 351 351 352 353 353 353 353 353 353 353 353 353 353 354 354 355 355 356 356 356 354 352 351 351 351 350 350 349 348 348 346
350 348 348 349 351 353 353 354 354 353 353 354 353 353 354 353 353 353 352 352 353 353 355 355 355 355 356 357 357 356 355 354 354 355 353 353 352 350 351 351 350 351 353 350 345 343 342 341 345 350 351 351 352 353 353 352 353 353 353 353 353 353 354 353 353 353 353 354 354 354 355 355 356 356 356 355 354 353 352 352 351 351 350 348 348
353 352 350 351 352 354 356 356 355 354 353 354 354 355 355 355 353 352 352 353 354 354 354 353 355 356 355 357 357 355 356 356 356 357 357 355 354 351 351 352 351 352 352 350 347 346 345 344 346 349 352 353 353 354 355 354 353 353 353 353 353 354 354 354 353 353 353 354 354 354 355 356 356 356 356 356 356 355 354 353 353 352 351 350 348
353 353 353 353 354 355 356 356 354 353 354 355 355 356 355 355 353 352 354 354 353 355 355 355 356 356 354 356 355 354 356 357 356 357 357 356 355 354 352 353 354 351 351 352 351 350 350 349 350 352 355 355 354 354 355 354 352 350 351 353 352 353 354 354 354 354 354 354 355 354 354 355 356 356 356 356 356 356 356 355 354 353 352 352 351
352 353 354 354 354 354 355 355 354 353 353 354 354 354 354 354 354 354 356 355 355 355 356 357 356 356 355 355 355 354 355 356 356 355 355 354 355 356 354 354 353 351 352 354 354 353 353 354 354 355 357 357 355 352 352 353 350 346 348 352 353 353 354 354 354 353 354 354 354 354 353 355 356 356 356 356 357 357 356 356 355 354 353 352 352
353 352 354 354 354 354 354 355 355 354 353 353 354 354 353 353 353 355 357 355 354 356 357 357 356 356 356 355 355 355 355 356 356 355 354 354 354 355 355 355 352 351 353 354 354 354 355 356 356 356 356 354 352 348 346 349 349 343 344 350 352 353 353 351 351 352 353 354 354 354 353 352 353 355 356 356 356 356 356 356 356 355 354 353 353
352 351 351 352 352 353 353 354 354 355 354 352 352 354 354 352 352 353 356 355 354 355 357 357 357 357 358 357 356 356 356 356 355 354 354 353 354 354 356 357 354 353 354 354 354 353 354 355 355 355 355 352 350 348 344 348 350 346 346 349 350 350 351 350 351 353 352 352 351 352 352 350 349 352 354 354 354 355 355 355 356 355 355 354 353
351 350 351 351 351 352 353 354 354 354 354 352 352 353 352 352 352 353 356 356 354 356 357 357 357 357 358 358 358 357 357 357 355 355 355 354 354 355 356 357 356 356 355 354 355 353 352 353 353 354 354 351 351 349 348 351 352 350 351 353 352 351 352 353 353 352 350 348 348 349 350 349 347 348 351 353 353 354 353 353 354 355 355 355 354
350 350 350 350 350 352 352 354 354 354 355 354 352 353 352 354 354 353 356 357 355 355 356 357 357 357 357 358 359 359 358 358 357 357 356 354 354 355 355 357 357 357 356 356 356 354 352 352 353 354 353 350 350 351 351 353 352 349 351 352 352 353 353 351 350 346 345 346 347 348 349 349 348 348 349 351 352 352 352 351 351 353 354 355 354
349 349 350 350 351 352 353 354 354 354 355 354 353 354 354 355 354 352 353 354 354 355 356 356 357 357 357 357 358 359 359 359 358 358 357 356 356 356 356 356 357 357 357 357 357 356 353 353 352 353 352 351 352 353 354 355 351 348 346 345 346 346 343 340 340 340 344 348 348 348 349 349 349 350 350 351 352 352 352 351 350 351 352 353 354
350 350 350 351 352 353 353 354 354 354 354 354 354 354 354 355 355 355 354 353 354 356 356 356 357 357 357 357 358 360 360 360 359 359 359 358 358 358 358 358 357 357 358 357 358 357 355 354 353 354 354 353 351 352 354 355 351 345 341 340 339 337 335 334 334 335 339 343 346 347 348 349 349 350 351 352 353 353 352 351 351 350 350 350 353
351 350 350 350 352 353 354 355 356 356 355 355 355 354 354 355 356 357 357 354 355 358 358 358 358 357 357 357 358 359 359 360 360 360 360 359 359 358 358 359 358 358 358 358 358 358 357 355 353 353 354 352 352 353 354 354 352 345 340 340 339 337 338 338 335 333 335 335 336 339 342 347 349 349 350 350 352 354 354 353 352 351 350 349 351
350 350 350 350 351 352 354 355 356 355 355 355 355 355 355 355 355 356 356 355 355 358 359 359 359 358 356 355 357 358 357 358 360 360 359 360 360 359 359 358 358 358 358 358 359 358 358 357 355 354 354 353 354 356 354 353 351 346 341 343 342 341 342 341 339 337 336 336 335 334 335 338 343 346 348 347 347 352 355 355 354 352 352 350 349
351 351 351 351 351 352 353 354 354 354 354 354 355 355 355 355 355 357 357 356 356 358 358 358 358 358 357 356 357 358 357 357 358 359 359 359 359 358 358 358 357 357 357 357 358 359 358 358 357 355 355 356 355 356 354 351 348 343 341 344 346 346 344 342 343 342 339 338 338 337 335 332 332 336 340 340 342 348 352 355 356 355 353 350 349
353 353 353 354 353 353 354 354 354 353 353 353 353 354 354 354 355 357 358 357 358 358 358 358 358 358 357 357 358 358 358 357 358 358 358 359 359 358 358 358 357 357 356 355 357 359 358 358 357 356 355 356 355 353 350 347 347 345 343 344 345 346 344 342 345 345 340 338 338 339 339 336 334 335 337 339 342 344 347 350 353 353 351 349 348
354 354 354 355 355 355 355 354 354 353 353 353 352 353 353 353 354 356 356 357 357 357 358 358 358 358 358 358 358 358 357 357 358 358 357 358 358 358 358 358 357 356 356 354 354 357 358 358 358 356 353 351 350 350 348 346 348 347 344 343 344 344 342 342 346 347 342 338 338 338 339 339 339 340 340 342 343 344 343 344 346 347 347 349 350
355 354 354 353 353 354 355 355 355 354 354 353 352 352 353 353 353 355 356 356 355 356 356 356 355 356 357 357 357 357 357 357 357 357 357 357 357 357 357 357 357 356 356 354 353 354 357 358 358 355 352 351 350 348 346 347 348 347 344 342 343 342 340 340 344 347 345 343 342 341 340 340 340 341 341 342 344 346 346 343 343 345 347 350 351
354 354 354 353 353 353 353 353 354 354 354 354 353 352 353 353 353 354 355 356 355 355 355 354 355 355 356 356 356 356 356 356 357 357 356 357 356 356 356 356 357 356 355 355 354 354 356 358 358 357 356 355 353 349 346 345 346 346 344 342 341 342 341 340 341 344 347 347 345 345 345 344 343 341 341 342 343 345 347 346 345 346 348 351 351
353 354 354 354 353 353 353 353 353 353 353 354 353 352 353 353 353 353 354 355 356 356 355 354 355 355 355 355 355 355 355 354 355 356 356 356 356 356 356 355 355 356 356 356 356 356 357 358 358 357 356 354 352 350 347 345 345 348 349 349 347 343 342 343 342 343 345 345 345 347 348 347 346 343 342 343 343 344 346 347 347 346 348 350 351
353 353 353 354 354 354 353 353 353 353 353 353 353 352 352 352 352 352 353 354 356 356 355 354 354 354 354 354 355 355 354 353 353 354 355 355 356 356 357 356 355 356 356 357 357 358 358 358 357 357 357 355 353 352 351 350 352 354 353 352 351 348 347 346 344 345 346 346 346 349 350 350 350 347 345 345 345 345 346 346 348 347 347 349 350
354 353 353 353 353 353 352 351 351 352 352 352 352 351 351 351 352 353 352 352 354 355 355 355 354 353 353 354 355 354 353 352 352 352 352 353 353 355 356 356 356 357 358 358 358 359 359 358 358 358 358 357 355 355 355 355 355 354 352 351 352 352 353 352 348 348 350 350 350 351 350 351 351 348 347 348 349 348 347 346 348 349 348 348 349
353 353 352 352 352 353 352 351 351 351 351 352 350 349 350 350 351 354 354 352 352 353 353 354 354 354 353 354 354 352 351 351 351 351 351 351 352 352 353 354 355 357 358 358 359 359 359 359 358 357 356 355 354 352 353 353 353 353 353 354 355 354 355 355 353 352 353 352 351 350 348 349 351 348 347 350 352 351 351 350 349 349 348 348 348
353 353 352 352 353 354 353 352 352 352 352 351 349 348 348 348 350 352 354 355 354 353 354 354 354 355 355 354 354 353 352 351 352 351 350 351 351 351 352 352 352 353 355 357 358 358 358 358 357 356 355 355 354 352 351 350 351 354 354 354 355 355 355 356 355 354 354 352 351 351 349 348 350 350 350 351 353 354 353 351 349 348 348 348 348
352 353 354 354 354 354 354 354 354 354 352 350 349 348 348 348 349 350 352 355 356 356 356 356 355 356 356 356 355 355 353 352 352 352 352 351 351 351 352 351 351 352 352 353 354 355 356 357 357 356 355 355 355 354 352 352 352 353 353 354 356 356 355 356 356 355 354 352 351 351 351 350 351 352 353 353 354 355 353 351 349 349 349 349 348
352 353 354 355 355 355 355 355 355 355 352 350 350 350 349 349 349 349 349 351 353 355 356 356 356 356 356 356 355 355 355 353 352 352 353 352 351 351 351 351 351 351 351 351 351 352 353 354 356 357 355 355 356 354 352 351 352 353 353 354 354 355 355 356 355 354 353 352 352 352 352 352 352 354 355 355 355 356 355 353 352 351 351 349 349
353 353 353 354 354 354 355 355 356 354 352 351 351 350 350 350 349 349 349 349 351 353 354 354 355 355 355 354 354 355 355 354 354 353 353 353 352 351 351 352 352 351 351 351 351 351 351 351 353 354 352 353 354 353 350 349 350 351 352 353 353 353 353 353 353 353 353 353 352 352 353 354 354 355 356 356 356 356 356 355 353 352 352 350 349
351 351 351 351 352 351 352 354 355 353 350 351 351 351 351 350 350 349 349 349 350 350 351 352 352 353 352 352 353 353 352 353 353 352 351 352 352 352 351 351 352 352 352 351 351 352 352 351 351 352 352 352 352 351 350 350 350 348 348 348 349 348 349 351 353 354 355 355 354 353 355 356 355 355 356 356 356 356 357 356 354 353 352 350 349
349 349 349 349 350 349 350 350 352 351 349 349 350 350 351 351 351 351 351 351 351 350 351 351 350 351 351 351 351 352 352 353 352 351 351 351 351 351 352 352 352 353 353 352 351 351 352 352 352 352 352 352 351 350 350 350 349 348 347 348 348 349 351 354 356 357 356 356 355 354 356 357 356 356 356 356 357 357 356 356 355 354 352 351 351
344 346 347 348 347 347 347 347 348 348 347 346 347 348 350 351 351 351 351 352 352 352 352 352 351 351 351 351 352 352 353 353 352 351 351 351 351 351 352 353 353 354 354 354 353 352 352 352 352 352 352 352 351 350 349 348 347 346 346 348 350 352 354 356 357 357 356 357 356 355 355 356 356 356 357 357 357 357 356 356 356 355 353 353 353
341 342 344 345 343 342 342 342 343 344 344 344 344 345 346 348 349 349 350 352 352 352 353 353 353 353 352 352 352 352 353 352 351 351 351 351 352 352 352 353 353 354 355 355 354 354 353 353 353 352 352 352 351 351 350 349 348 346 346 347 351 353 355 356 356 356 357 358 357 356 356 357 357 357 357 357 357 357 358 358 357 355 354 354 354
341 341 342 343 342 341 341 342 341 342 343 342 342 343 343 344 346 347 349 350 351 351 352 352 353 353 353 352 352 351 351 350 350 350 351 350 351 351 351 352 353 354 354 354 353 354 353 353 353 353 353 353 352 352 352 351 350 350 348 349 351 353 355 356 356 356 357 358 357 356 356 357 357 357 357 357 357 357 358 358 357 356 355 354 353
Wind_Speed
14 14 13 13 13 13 13 12 11 10 9 8 7 6 6 5 5 6 5 6 5 4 5 5 5 5 4 4 5 5 6 5 5 6 5 5 3 3 3 4 4 3 3 3 3 4 5 5 6 6 6 7 8 8 8 7 7 8 9 9 10 10 10 11 11 11 11 11 12 12 13 13 13 13 12 12 13 13 13 14 14 15 15 14 14
12 12 11 11 11 11 11 10 10 10 9 7 7 7 7 7 8 8 7 6 5 5 5 5 5 6 5 5 4 4 5 5 5 6 6 6 5 4 4 4 5 4 3 3 4 4 5 5 5 5 6 6 7 7 7 8 8 9 9 9 10 10 10 11 11 10 11 11 11 12 12 12 12 12 13 13 13 13 13 14 15 16 15 15 15
10 10 10 10 10 9 9 9 9 9 8 7 8 8 8 9 9 8 7 6 5 5 5 5 5 6 6 6 5 4 4 4 4 4 4 6 7 6 6 6 6 6 6 6 6 6 7 7 7 7 7 7 7 7 7 7 8 8 8 9 9 10 10 11 10 10 10 11 12 12 13 13 13 14 14 14 14 14 14 15 16 17 17 17 17
9 9 8 8 9 8 8 8 8 8 8 8 8 8 9 9 10 9 8 6 5 6 6 5 5 6 6 5 5 4 4 4 3 3 4 6 7 7 7 8 8 8 8 8 9 9 9 9 9 9 9 8 8 9 9 9 9 9 10 10 11 11 12 12 12 12 12 13 14 14 15 16 16 16 17 17 17 16 16 17 18 19 19 19 20
7 7 7 7 8 8 7 7 7 7 7 8 8 8 9 9 9 9 9 7 5 5 6 5 5 6 6 5 5 5 5 5 4 4 4 5 7 7 8 8 8 9 9 9 9 9 9 10 10 10 10 10 10 10 10 11 11 12 12 13 13 14 14 14 14 14 14 14 15 16 16 16 16 17 17 17 18 18 18 18 18 20 20 20 21
6 6 6 7 7 7 7 6 6 7 7 7 8 9 10 10 10 9 8 7 6 6 6 5 5 6 5 5 6 6 6 5 4 5 5 5 6 7 7 8 8 9 9 9 8 9 9 9 10 10 10 10 10 11 11 12 13 13 14 15 15 15 16 16 15 15 15 15 15 15 16 16 16 16 16 17 18 18 17 17 17 18 19 19 20
5 5 6 7 7 6 6 6 5 6 7 7 8 9 9 10 11 10 8 8 7 7 8 7 6 5 6 7 6 7 7 5 5 5 5 6 6 7 7 8 8 9 9 9 8 8 8 9 9 9 9 10 10 11 12 13 14 15 15 16 16 16 16 15 15 15 14 14 14 15 15 14 15 15 15 15 16 16 16 17 17 17 18 18 19
4 5 6 7 6 5 5 5 5 6 6 7 7 8 9 9 11 11 10 9 7 7 7 7 6 5 6 6 7 8 7 6 6 6 6 7 7 7 8 8 9 9 9 9 9 9 8 8 9 9 9 9 10 11 12 13 14 15 15 15 15 14 13 12 12 12 13 13 13 13 13 13 14 14 14 15 15 16 16 17 17 17 17 17 17
5 5 6 6 5 5 4 4 4 5 6 7 7 8 9 9 10 12 12 11 9 7 7 6 5 5 5 5 6 8 7 7 7 7 7 8 8 8 8 8 9 9 9 10 10 9 9 8 8 8 8 9 10 11 12 13 14 14 14 14 14 13 12 11 11 11 11 11 11 12 12 12 13 14 14 14 15 15 16 17 17 17 17 16 16
5 5 6 5 4 4 3 3 4 5 6 6 7 7 8 8 9 11 12 11 10 9 9 7 5 4 5 5 6 7 7 7 8 8 9 8 8 8 8 8 9 9 10 10 10 10 9 9 8 7 7 8 10 11 12 13 13 13 14 14 13 12 12 11 11 11 10 11 11 12 12 12 12 13 13 14 14 15 17 17 17 17 16 15 15
5 4 4 3 3 3 2 2 3 5 5 5 6 7 8 8 8 10 10 10 10 10 10 9 6 4 5 5 6 6 6 7 8 8 9 8 7 8 8 8 8 8 9 10 9 9 9 9 8 7 7 9 10 12 13 13 12 13 14 14 13 12 11 11 11 10 10 10 11 11 11 12 12 12 13 13 14 15 17 18 17 16 14 14 15
4 3 3 3 2 2 1 1 3 4 5 5 6 7 8 8 8 9 9 8 9 9 10 10 6 5 5 4 4 5 5 7 7 7 7 7 7 7 7 7 7 8 9 9 8 8 8 8 8 7 8 9 10 12 12 11 11 13 14 14 13 12 12 12 11 10 10 10 10 10 10 10 11 11 12 13 14 16 18 18 17 16 14 14 15
3 2 2 2 2 1 1 1 2 3 4 4 6 7 8 8 7 8 8 8 8 9 10 8 6 7 6 4 5 6 7 7 6 6 5 5 6 7 7 7 7 7 8 8 7 7 7 8 8 8 8 9 10 11 10 10 11 12 13 14 14 14 14 14 13 13 12 11 11 10 10 10 11 11 12 14 16 17 18 19 18 16 15 15 15
3 2 2 2 1 1 1 1 2 3 3 3 5 6 7 7 7 7 7 8 8 9 11 8 6 7 5 4 4 5 7 8 6 6 6 5 5 6 7 7 6 6 7 7 7 7 8 8 8 8 8 9 10 10 9 10 12 12 13 14 14 15 16 16 16 16 16 15 14 13 13 12 12 13 14 15 17 18 19 20 20 19 17 17 17
3 2 1 1 0 1 1 1 2 3 3 2 3 6 6 6 7 7 6 6 7 9 11 10 8 6 4 4 4 2 5 8 7 7 7 7 6 6 7 7 6 7 7 7 8 7 7 8 8 8 8 8 9 10 9 10 12 13 13 13 13 14 15 17 18 18 18 18 17 16 15 14 13 14 15 16 18 19 21 22 22 22 20 19 20
3 2 1 1 1 1 1 1 2 2 2 2 3 4 5 5 6 7 6 6 6 7 9 10 10 8 4 2 2 2 3 6 7 7 8 8 9 8 8 8 7 8 9 8 8 8 8 8 8 8 7 7 8 9 9 10 12 13 13 13 13 13 15 16 17 17 18 19 19 18 17 16 15 15 15 16 18 20 21 23 24 24 23 22 22
3 2 1 1 1 2 2 1 2 2 2 2 2 3 4 4 5 6 6 6 6 6 7 8 10 10 6 3 2 2 3 6 6 4 7 9 9 9 10 9 8 8 9 9 8 9 9 9 9 9 8 8 8 9 9 9 12 13 13 14 13 13 13 14 15 16 17 18 18 18 18 18 17 16 16 16 18 19 21 22 24 25 26 25 24
4 3 2 1 1 1 1 1 1 2 1 1 1 3 3 3 4 4 5 6 6 5 6 7 8 9 8 6 4 3 3 6 5 3 5 7 8 9 10 10 9 9 9 8 8 9 9 9 9 10 9 9 9 10 9 9 11 12 13 14 14 13 13 13 14 14 15 16 17 18 18 18 18 18 17 17 18 19 20 21 23 25 27 27 26
4 4 3 2 1 1 1 1 1 1 1 1 1 2 1 1 3 3 4 6 6 6 5 6 6 7 7 6 5 4 3 3 4 4 3 5 8 9 10 10 9 9 9 8 7 8 8 8 8 9 10 10 11 11 10 8 9 11 12 13 13 13 13 13 14 14 14 15 15 16 17 17 17 18 18 18 18 19 19 20 22 24 26 27 28
5 5 4 3 2 2 2 2 2 2 1 1 1 1 0 1 1 2 3 5 5 5 5 5 5 5 6 6 5 6 5 3 4 5 3 3 6 7 9 9 8 10 10 8 7 7 8 8 7 7 9 10 11 11 9 8 9 10 11 11 12 12 12 13 14 15 14 14 15 15 15 16 16 17 18 18 18 19 20 21 21 23 25 27 28
5 5 5 4 3 3 3 2 2 2 2 1 1 1 2 1 1 1 2 3 4 4 4 4 4 4 6 6 5 5 4 3 4 4 3 3 4 6 8 9 8 9 10 8 7 7 7 7 6 6 7 8 9 10 9 9 9 9 10 10 10 11 11 12 13 14 15 15 15 15 14 15 15 16 17 17 18 19 20 21 22 22 24 25 27
5 5 5 5 4 4 3 3 3 3 3 2 2 2 2 1 0 1 1 1 2 3 3 3 3 4 4 5 5 5 3 3 4 5 3 2 3 4 6 7 7 8 10 8 8 7 7 6 4 4 5 7 8 9 10 10 11 11 11 10 10 10 10 11 12 13 14 15 15 15 15 14 15 15 16 16 17 19 20 21 22 22 23 24 26
6 6 6 6 6 5 4 3 3 3 3 3 3 3 2 1 1 1 1 1 1 2 2 2 2 2 3 4 4 4 3 3 4 5 3 2 3 4 5 7 6 6 9 8 7 7 7 6 3 2 3 5 7 9 11 12 13 13 12 11 10 10 11 11 11 11 13 14 16 15 15 15 14 14 15 15 17 18 19 20 21 22 23 24 25
7 7 7 7 7 5 5 4 3 3 4 4 4 3 3 2 2 3 2 3 3 2 2 1 1 1 2 2 3 3 3 4 4 4 3 2 2 4 5 6 4 5 8 7 6 6 8 7 4 4 4 5 7 9 11 13 14 15 14 12 10 11 12 12 12 12 13 14 15 15 14 14 14 14 15 15 16 17 19 20 21 22 23 23 24
7 8 8 8 7 6 5 4 3 3 4 4 4 4 4 3 3 3 3 3 3 3 2 2 2 2 2 1 2 2 2 3 4 4 2 1 2 3 6 5 4 5 6 6 5 5 7 8 6 6 6 6 8 10 12 12 13 15 15 13 12 12 13 14 14 14 13 14 15 14 14 14 14 14 15 16 16 17 18 19 20 21 22 22 23
8 7 7 7 7 6 5 5 4 4 4 5 5 5 5 4 4 4 4 4 3 3 3 3 3 2 2 2 2 2 2 3 3 3 3 2 2 4 6 5 5 5 5 5 5 4 5 6 5 6 7 7 8 10 11 11 12 15 16 14 14 14 14 15 15 14 14 14 15 15 15 14 13 14 14 15 16 17 18 19 19 20 21 21 22
7 8 7 7 7 6 6 5 5 4 4 5 5 5 5 5 4 4 4 4 4 4 4 3 3 3 2 2 2 2 2 3 2 2 2 2 3 4 5 5 5 5 5 4 5 4 4 4 3 5 8 8 8 9 12 12 13 16 16 15 15 15 14 14 14 14 15 15 15 15 14 13 13 14 14 14 15 16 17 18 19 19 20 21 21
6 7 7 8 8 7 6 5 5 4 4 5 5 5 5 5 5 5 5 5 5 5 4 4 3 3 3 3 2 3 3 3 3 2 2 3 3 2 3 4 4 5 4 4 5 4 4 5 4 4 8 10 9 10 12 12 13 16 16 15 16 15 14 13 14 15 16 16 15 14 14 13 13 13 14 14 14 15 16 17 19 19 20 20 20
6 5 6 7 8 7 7 6 5 4 4 5 5 5 5 5 5 6 5 5 6 6 5 4 4 4 4 3 3 3 3 3 3 3 2 2 2 2 2 2 3 4 4 4 5 5 5 7 6 6 9 11 11 11 12 11 13 16 15 14 15 14 14 14 15 16 16 16 15 14 14 14 13 13 14 14 14 14 15 16 17 18 19 19 19
7 5 5 6 7 7 7 6 5 4 4 5 5 5 5 5 6 6 6 6 7 7 6 6 5 5 5 5 5 4 4 4 3 3 2 2 2 2 2 2 2 3 4 4 4 4 6 8 7 7 10 12 11 12 11 11 14 17 15 14 15 14 15 15 15 15 15 15 15 15 15 15 15 14 14 14 14 14 15 15 16 17 19 19 19
8 7 6 6 7 7 7 7 6 5 5 5 6 6 6 6 6 6 6 7 7 7 7 7 6 6 6 6 5 5 4 4 4 3 3 3 2 3 3 3 3 3 3 4 3 4 6 8 9 8 9 11 13 13 12 12 15 18 16 15 15 15 15 15 15 15 14 14 15 15 15 15 15 15 15 15 14 14 14 15 15 16 18 19 19
9 8 8 7 7 7 7 7 6 6 6 7 7 7 7 7 7 6 6 7 7 7 7 7 7 7 7 7 6 6 5 5 4 4 4 4 4 5 5 5 5 4 4 4 5 6 7 8 10 10 10 12 14 14 14 13 14 17 17 17 17 16 17 17 17 17 16 16 16 16 16 15 15 15 15 15 15 15 14 14 15 16 17 18 19
9 8 8 8 7 7 8 8 7 7 7 7 8 8 8 8 8 7 7 7 7 8 8 8 7 7 8 8 8 7 7 7 6 5 5 6 6 6 6 7 7 6 5 5 7 9 9 9 10 11 12 14 13 13 15 15 15 17 17 18 17 17 18 19 19 19 19 18 18 17 17 16 15 14 14 15 15 15 14 14 14 15 16 17 18
9 8 8 8 8 7 8 8 8 8 7 7 8 8 9 9 8 7 7 7 7 7 8 8 8 8 8 9 8 7 7 7 7 7 7 7 7 7 7 6 7 6 6 7 7 9 11 10 11 12 12 13 13 13 16 18 18 19 19 19 18 17 19 20 19 18 21 22 20 18 18 17 16 16 15 16 15 15 14 14 14 15 16 17 17
10 9 8 8 8 7 7 8 8 9 9 9 9 9 9 9 9 8 8 8 8 7 8 8 8 8 8 8 8 7 7 7 7 8 8 8 8 8 8 7 8 7 7 8 7 7 10 11 11 12 12 13 15 16 18 20 19 20 21 20 19 18 19 21 19 18 21 23 21 20 18 16 16 16 16 16 15 15 15 14 15 15 15 16 16
10 10 9 8 8 8 8 8 8 9 10 10 10 10 10 10 10 10 10 10 10 9 9 8 8 8 8 8 8 7 7 8 8 8 8 8 9 9 9 9 8 8 8 9 8 7 8 11 12 13 15 17 17 17 19 20 19 20 21 20 20 20 20 21 18 17 22 26 24 22 20 18 18 19 18 18 17 16 15 15 15 15 15 14 13
11 10 10 10 10 10 10 10 9 10 10 11 11 11 11 11 11 11 11 11 11 11 10 10 9 9 9 8 8 8 8 8 8 8 8 8 9 9 9 9 8 9 10 11 11 10 9 10 12 14 15 16 17 18 19 19 19 19 20 20 20 20 21 22 19 17 20 24 24 23 22 21 22 22 22 21 19 17 15 14 13 13 12 11 11
12 12 12 12 12 12 12 12 11 11 11 11 12 12 12 12 12 12 12 12 12 12 11 11 10 10 10 10 10 9 9 9 8 9 9 9 9 9 10 10 10 11 12 12 12 12 10 10 11 12 13 13 15 17 18 18 18 18 19 20 21 21 22 23 23 21 20 21 23 23 22 22 25 26 25 23 20 17 15 12 11 10 9 9 9
13 12 12 12 12 13 12 12 12 11 11 12 12 12 12 12 13 14 14 14 13 13 12 12 11 11 11 11 11 11 11 11 10 10 10 10 10 10 11 12 12 12 12 11 11 10 10 10 10 10 11 13 15 16 17 19 19 17 15 15 18 22 23 25 26 26 24 25 25 22 20 23 27 29 28 25 21 18 15 12 11 9 8 8 9
11 11 10 10 10 10 10 11 11 10 10 11 12 12 12 12 13 14 14 15 14 14 14 13 13 13 13 13 12 12 12 12 12 11 11 11 11 11 11 12 13 13 12 11 11 10 10 10 10 10 12 14 16 16 16 16 14 12 11 11 14 20 23 25 29 28 26 27 25 20 18 21 24 27 28 26 24 20 16 13 11 9 8 8 9
11 10 10 9 9 8 9 10 10 9 10 10 11 11 11 12 13 13 14 15 15 15 16 15 15 15 15 14 13 13 13 13 13 13 13 13 13 13 13 14 14 13 13 12 11 11 10 11 11 11 11 12 14 14 14 13 12 13 14 13 14 16 17 20 26 27 23 21 20 22 24 21 20 26 27 23 23 22 18 14 12 10 9 9 9
15 14 13 12 10 9 9 9 9 9 9 10 12 12 11 12 12 12 13 15 15 15 17 17 17 16 16 15 14 14 14 13 13 13 13 13 14 14 15 15 15 14 14 13 12 12 11 11 12 12 12 13 14 15 15 15 14 14 14 12 12 14 15 16 21 24 23 20 18 24 31 26 20 24 25 21 20 19 16 14 11 9 9 9 10
16 14 14 12 11 10 10 10 9 8 8 10 13 13 13 13 13 13 13 13 14 15 15 16 16 16 15 15 15 15 15 14 13 13 13 13 13 14 14 14 15 14 14 14 14 13 13 12 13 13 13 14 15 16 16 16 15 13 13 12 12 13 13 12 15 20 23 24 22 24 30 28 21 22 23 21 19 16 13 12 11 10 10 10 10
13 10 9 9 9 8 8 9 8 6 7 11 13 13 14 14 15 15 14 12 11 11 12 13 14 14 14 14 14 13 14 15 15 14 15 15 14 14 13 13 13 13 13 13 14 14 14 14 14 14 14 15 15 16 16 16 15 15 15 14 12 12 12 12 13 16 21 26 25 21 24 24 20 18 19 18 16 14 13 14 13 12 12 11 10
8 7 5 5 5 5 5 5 4 3 6 10 11 11 12 13 15 16 15 13 11 10 10 11 11 12 12 13 13 13 13 16 17 16 15 15 15 13 13 13 12 12 12 12 13 14 15 15 15 16 17 17 16 17 18 18 18 17 15 15 13 12 13 12 14 19 24 26 22 18 19 20 17 15 15 15 14 14 15 17 16 14 12 11 10
7 7 6 5 4 3 3 4 3 3 5 8 7 8 9 10 11 13 14 13 12 11 10 10 10 11 12 13 13 13 13 14 15 14 13 12 13 13 13 14 14 15 15 15 15 15 15 16 18 19 20 20 19 20 20 19 19 18 15 15 15 15 16 18 21 25 27 25 19 14 15 17 14 13 15 14 14 14 15 18 17 14 12 11 10
7 6 6 6 5 3 2 3 4 4 4 4 4 5 6 6 7 8 9 10 11 10 9 10 10 10 11 11 11 12 12 11 11 11 11 11 12 13 15 16 16 17 18 18 17 15 14 16 18 19 20 19 19 20 19 17 18 18 17 17 18 19 22 22 22 22 22 20 15 10 12 15 14 13 15 14 13 14 15 18 19 16 11 8 7
6 5 5 5 5 4 3 3 4 4 3 2 1 1 3 4 4 4 5 6 7 7 7 8 8 8 8 8 8 8 8 8 9 10 11 11 12 13 15 17 17 16 16 19 21 20 18 18 19 20 20 20 20 21 20 18 18 18 18 17 17 19 20 18 16 17 16 15 11 9 11 16 14 13 15 15 14 15 17 17 17 15 11 8 9
8 6 6 5 5 4 4 4 3 2 1 2 3 3 3 3 3 2 2 2 3 4 5 6 7 7 7 8 8 6 5 6 9 10 11 12 11 11 13 15 16 16 16 17 19 20 21 22 22 23 23 23 22 22 21 19 18 18 18 17 15 16 17 16 17 18 17 15 12 9 11 14 14 14 15 15 15 16 16 15 13 13 15 14 14
7 6 5 5 5 4 3 3 2 2 1 2 4 4 4 4 3 2 0 0 1 2 3 4 4 4 5 6 7 5 4 6 9 10 11 11 9 9 10 12 14 15 15 14 15 15 17 20 22 22 23 23 23 22 21 20 19 19 20 21 18 16 16 17 18 19 18 17 13 8 8 12 14 14 16 17 17 15 14 12 11 14 19 21 19
6 6 5 5 5 5 4 3 3 4 3 2 1 1 2 3 3 2 1 1 2 3 3 4 4 3 3 4 5 4 3 6 8 9 10 11 9 9 10 11 13 15 15 15 16 16 16 18 19 19 20 21 22 23 23 22 21 21 22 23 21 17 16 18 19 17 15 14 11 7 9 14 15 15 17 17 16 14 12 11 12 15 20 23 23
Wind_Direction
95 94 96 99 100 102 102 101 99 98 94 90 88 82 69 60 51 43 42 41 38 38 39 34 25 20 14 13 16 18 21 16 9 7 2 1 355 339 346 343 342 340 315 306 304 302 304 304 305 306 305 307 310 310 309 311 311 312 314 315 313 312 313 310 308 310 309 308 308 305 304 304 304 304 303 303 303 301 298 297 297 296 293 289 288
98 97 98 99 99 100 99 96 95 94 86 78 77 69 57 51 46 44 43 39 36 37 41 43 38 29 23 24 22 17 16 12 12 16 14 19 23 16 18 12 5 4 349 339 332 325 326 321 317 316 314 313 312 313 311 309 310 309 310 311 309 309 310 309 308 309 307 310 311 308 308 308 306 307 304 302 302 299 297 297 301 302 298 292 289
101 100 100 100 100 98 97 94 90 89 82 70 65 59 54 48 40 38 41 40 33 29 33 37 35 26 21 22 23 19 10 6 5 11 13 19 28 31 31 30 25 20 15 13 11 8 5 1 357 352 347 343 337 336 332 330 328 325 323 321 320 320 320 320 323 324 322 323 323 320 320 320 318 317 314 311 307 302 300 300 303 305 301 295 291
105 102 103 102 100 98 97 94 87 83 79 67 60 56 52 47 39 35 36 36 32 25 23 30 34 26 22 16 11 7 1 5 2 356 5 16 26 32 34 33 31 28 26 22 19 17 13 10 8 4 1 358 355 354 352 351 348 346 344 341 339 338 335 336 338 338 336 335 334 332 332 329 327 324 321 319 313 309 309 308 307 306 303 299 295
112 107 105 101 99 100 96 92 87 80 73 63 57 54 48 45 42 38 35 33 34 29 26 37 37 27 26 16 3 358 355 3 5 4 9 11 18 25 28 30 29 27 25 23 19 15 11 9 5 2 360 358 357 357 355 353 351 349 346 344 342 340 339 339 339 339 338 338 338 336 334 330 326 323 320 317 314 313 314 312 308 304 302 300 296
117 112 108 103 101 100 95 91 89 78 65 58 54 49 43 42 42 39 35 36 38 32 34 42 36 27 24 14 3 0 359 357 359 9 14 9 12 19 21 23 23 20 19 18 17 12 7 4 1 359 357 356 355 353 352 350 348 346 343 341 338 336 334 332 332 333 334 335 335 334 331 327 323 321 319 316 316 315 315 313 310 307 305 303 301
119 116 112 109 102 97 95 91 86 73 60 56 54 47 42 40 38 36 34 38 40 33 31 30 31 28 20 17 12 12 11 4 5 7 5 7 10 12 13 14 13 11 10 9 9 8 4 0 358 357 355 354 354 353 352 350 348 346 343 341 337 333 330 327 327 327 328 330 331 332 330 327 325 324 322 320 320 320 321 321 319 319 315 314 313
122 119 115 112 103 95 94 91 82 68 60 56 50 44 40 36 34 34 35 36 39 36 29 23 28 27 16 17 15 15 18 14 13 7 359 6 6 3 5 7 8 8 8 7 6 6 5 1 357 356 357 356 356 355 354 353 352 350 348 347 345 342 337 332 330 327 328 330 331 332 332 334 333 331 330 328 328 329 331 331 330 328 324 322 323
125 123 119 114 103 94 92 90 77 65 60 53 44 37 32 30 32 35 35 35 37 37 29 19 20 17 11 11 7 9 16 18 16 11 11 15 10 4 3 4 8 9 9 8 8 9 10 8 3 2 3 0 0 360 0 1 359 357 356 357 357 355 353 348 344 340 338 338 337 337 339 340 339 339 339 337 339 340 341 340 337 333 329 328 330
128 127 124 114 103 99 97 90 73 64 58 47 39 33 27 24 28 32 35 37 37 35 28 19 10 6 9 1 355 360 8 16 21 20 19 17 13 11 10 9 11 11 12 11 11 15 18 17 15 13 11 8 9 9 11 11 7 5 6 6 6 5 7 5 2 356 350 348 345 344 345 345 347 349 348 348 350 351 349 347 342 338 336 335 336
133 133 130 118 105 103 94 80 65 58 51 42 35 29 24 22 24 30 35 36 37 34 27 22 17 7 4 352 349 2 13 20 25 25 23 17 11 11 9 9 14 14 13 13 14 18 21 21 20 16 16 17 18 18 18 17 12 13 14 12 14 18 21 18 12 7 359 356 354 352 353 353 356 358 358 0 2 1 358 355 353 351 349 347 342
142 137 135 132 119 109 95 65 54 46 38 36 33 26 21 19 21 28 33 34 35 32 25 21 20 9 2 356 360 18 34 33 26 18 17 13 9 9 4 360 9 11 8 10 13 15 15 15 17 15 16 18 20 19 17 18 17 19 20 19 24 29 31 29 23 18 12 9 6 3 4 5 8 11 12 14 12 9 8 6 5 2 359 353 345
155 141 141 151 137 114 101 55 39 28 25 32 33 27 20 17 22 26 28 33 34 29 23 20 22 17 12 23 36 44 47 39 26 9 359 357 357 4 5 357 357 358 360 7 10 11 8 5 8 10 12 17 21 20 17 22 24 25 27 28 35 41 41 41 36 33 28 24 23 22 23 24 26 27 25 21 18 16 16 16 15 12 7 0 351
170 161 153 163 161 103 79 54 19 2 2 19 26 23 20 21 29 32 28 32 36 31 27 26 25 20 14 28 45 57 52 40 32 24 13 5 360 358 2 359 350 350 359 11 14 12 6 3 5 10 14 20 23 20 18 28 30 29 32 33 39 45 45 45 42 40 38 35 34 32 33 33 33 32 27 23 20 19 19 20 21 19 14 7 359
183 171 144 144 90 58 61 34 351 344 345 354 9 12 21 30 33 36 32 32 40 37 35 33 27 18 12 29 27 34 50 36 24 30 29 26 24 13 13 15 11 14 20 25 23 19 14 11 13 18 21 23 23 19 23 35 33 30 34 33 36 41 42 40 39 38 37 37 36 34 34 34 33 31 27 23 21 21 21 22 23 21 18 12 5
187 174 129 94 50 60 59 33 352 349 358 358 360 7 23 34 36 41 37 33 37 36 39 38 33 29 21 26 7 6 45 15 1 22 33 35 35 29 30 30 27 31 35 35 31 27 27 25 24 26 27 27 26 23 30 40 35 31 32 32 33 35 36 35 33 33 32 32 32 32 32 31 30 29 26 23 22 23 22 23 24 23 20 15 9
197 201 175 28 39 51 43 36 6 8 21 8 360 8 20 31 42 45 41 42 41 37 45 44 42 45 42 34 17 31 31 359 351 19 30 32 33 31 36 38 36 36 34 35 35 31 32 32 31 33 34 32 31 29 35 43 39 32 29 29 30 30 30 29 27 27 26 26 26 25 26 27 27 26 24 23 22 23 23 23 25 24 22 17 11
212 218 221 292 339 14 14 11 350 355 11 350 344 3 15 30 40 45 46 51 51 44 47 46 46 50 47 46 41 27 359 350 354 2 13 25 29 33 39 40 42 41 32 29 33 31 32 37 39 39 40 35 32 31 34 41 40 33 28 26 25 24 24 21 19 18 18 19 20 19 19 20 21 21 20 20 19 19 19 20 22 23 23 19 13
215 219 219 244 281 303 323 306 277 287 307 301 308 352 15 44 41 51 60 58 55 48 43 41 43 43 41 47 41 27 15 6 8 357 353 14 21 31 39 37 39 36 30 28 32 32 30 38 44 42 42 39 36 34 32 36 37 32 28 25 22 20 17 15 13 11 9 9 11 13 13 13 14 15 15 15 14 14 13 14 16 19 21 20 15
212 214 220 234 256 268 270 261 251 256 279 293 281 301 169 136 50 67 77 64 54 45 38 33 36 36 32 35 32 33 53 60 26 8 346 350 11 25 28 30 36 31 29 31 31 30 27 33 45 43 43 42 38 35 33 35 34 27 24 20 17 15 11 10 9 8 6 3 2 4 6 7 7 7 9 9 9 8 8 9 11 13 16 18 17
218 217 221 229 236 242 249 246 249 258 253 242 238 216 185 170 71 101 108 74 52 39 35 29 29 29 26 28 28 37 62 67 29 15 360 347 5 16 14 19 31 28 25 26 25 20 14 21 39 43 42 42 38 33 29 25 18 11 10 10 10 9 6 5 5 5 5 2 359 359 358 360 0 0 2 3 3 3 3 5 6 8 12 14 15
227 225 221 219 220 227 239 241 244 247 233 215 211 205 194 190 203 168 158 85 46 32 21 19 23 25 24 26 27 32 43 33 16 14 9 345 341 358 10 13 17 19 17 20 23 14 7 17 35 39 37 35 31 26 19 11 2 355 352 355 359 1 1 1 1 1 0 0 359 358 356 355 356 356 356 356 357 357 358 360 2 4 7 9 12
230 230 223 215 213 219 232 240 239 236 228 218 210 209 211 220 255 249 244 289 336 350 341 348 360 6 17 22 24 27 27 12 4 358 351 347 338 350 10 6 3 11 10 16 27 19 14 24 37 33 27 23 17 13 9 4 0 354 348 346 348 351 355 355 355 354 353 355 356 356 357 356 354 354 352 352 352 352 353 354 357 359 2 5 8
230 231 226 218 216 219 231 237 238 234 230 225 218 215 219 232 261 263 260 281 298 300 290 291 304 313 344 3 8 15 14 4 1 355 348 356 334 338 3 1 354 3 3 8 23 26 24 30 41 42 31 19 9 3 360 357 354 349 345 345 343 343 348 349 346 345 345 349 353 354 356 357 356 355 352 351 349 349 349 350 352 355 357 1 4
231 230 226 222 223 228 235 243 251 247 237 233 230 228 230 239 258 263 264 276 286 283 274 273 279 284 289 311 332 348 360 360 6 15 23 19 321 331 356 352 339 356 4 5 6 19 33 38 47 45 33 19 6 358 355 353 346 340 338 342 343 342 345 344 341 341 343 346 350 351 353 355 357 356 353 351 349 348 347 347 348 351 353 356 360
236 238 232 228 231 236 241 250 258 257 248 245 245 243 242 247 256 264 267 272 277 277 282 285 279 276 272 272 289 307 338 348 1 17 18 10 348 344 349 341 334 347 3 8 359 2 25 34 45 41 28 18 7 358 355 354 345 339 338 340 342 343 344 343 345 349 350 349 350 350 350 349 349 352 352 349 348 347 345 345 345 347 349 352 355
247 251 249 242 243 246 250 256 257 259 256 249 251 252 254 259 262 267 269 271 280 285 288 287 279 279 275 275 281 286 314 322 319 346 355 348 348 348 346 342 341 344 350 360 357 357 7 7 19 26 15 8 3 359 359 359 352 347 350 350 349 348 347 348 353 355 351 348 347 348 348 346 342 343 345 345 344 344 343 342 343 344 346 349 352
260 264 259 250 248 252 257 260 259 260 258 252 253 254 260 270 274 274 275 276 284 289 290 287 284 286 284 286 286 283 303 309 290 304 329 336 335 332 334 340 346 343 343 348 350 355 359 352 347 357 360 357 354 357 2 3 357 356 358 356 353 353 352 351 351 347 345 345 345 345 346 345 340 338 340 340 340 340 340 340 340 341 343 346 349
263 271 264 249 245 251 257 259 261 261 257 252 248 247 257 271 275 275 277 281 284 283 281 283 286 288 287 285 283 282 295 301 286 284 306 338 339 315 318 332 342 339 337 341 343 343 343 343 338 336 348 353 350 352 358 359 358 0 0 355 353 352 346 343 340 338 340 343 344 343 342 341 338 336 336 338 338 338 339 339 339 339 340 343 346
250 250 247 240 239 246 253 257 261 260 256 248 240 242 253 265 273 274 274 277 280 277 277 282 285 287 285 283 280 281 289 293 286 275 284 323 333 303 308 319 325 331 331 328 327 332 335 336 334 331 339 348 347 346 348 348 354 0 1 358 355 347 339 340 341 340 339 340 340 339 337 335 333 331 330 332 335 337 338 339 340 340 339 340 342
247 237 230 233 236 241 248 254 259 257 252 247 244 249 255 262 269 271 272 274 275 274 276 279 283 284 283 282 280 279 283 288 285 275 271 286 294 287 293 304 307 312 317 313 307 319 324 326 331 333 334 340 344 345 344 343 350 359 5 3 358 353 349 350 350 347 340 335 332 331 330 330 328 327 326 325 326 329 333 336 339 340 339 338 339
251 239 232 233 236 240 245 250 253 255 254 249 249 254 258 261 262 260 265 269 269 270 272 275 278 280 279 279 277 276 277 279 281 276 269 273 281 285 288 293 296 297 297 292 290 300 305 314 326 330 333 337 339 343 346 344 345 354 3 4 4 6 4 360 358 355 348 337 329 324 323 324 325 328 331 330 326 323 323 328 334 337 338 337 336
250 242 240 241 241 244 248 252 253 258 261 257 256 258 258 260 262 261 263 265 264 264 269 273 274 276 277 276 276 277 276 273 273 274 274 275 279 284 290 295 296 298 302 295 291 299 304 312 323 326 331 336 335 338 344 344 344 352 359 0 1 2 1 358 358 359 357 349 337 327 321 319 321 326 333 335 333 327 321 319 324 330 334 335 334
244 241 244 245 247 249 252 257 262 264 265 263 263 263 261 260 257 253 255 261 265 265 267 272 272 273 276 276 276 279 279 278 276 274 276 280 284 288 294 301 301 303 313 312 301 302 308 314 324 326 329 333 332 334 339 341 343 348 353 353 351 351 353 354 352 352 357 358 352 343 333 326 323 323 328 332 333 332 327 322 320 323 328 331 331
239 239 243 245 250 256 255 258 262 266 270 271 270 268 264 260 254 248 249 255 261 262 263 268 270 271 275 276 277 279 284 286 284 281 282 285 289 292 292 298 302 300 310 320 311 301 306 314 320 324 326 327 327 330 335 339 341 343 346 347 345 345 349 350 346 343 350 356 358 355 350 345 341 338 337 337 336 333 329 324 322 322 324 327 327
236 237 241 244 249 256 258 258 258 264 272 275 274 272 267 263 258 255 254 257 260 262 262 264 268 272 275 277 280 282 286 291 291 289 289 291 294 295 294 297 301 299 304 316 316 306 303 308 313 319 323 326 327 331 335 337 338 338 341 344 343 344 347 347 342 337 343 350 353 354 354 353 352 351 349 347 343 337 330 322 320 320 322 323 323
237 240 244 248 252 255 258 260 260 265 272 275 275 274 271 270 267 261 260 262 263 264 265 269 272 275 276 277 280 284 286 288 290 290 293 298 299 299 298 299 303 305 307 311 314 311 303 301 307 315 321 325 327 331 334 336 336 337 342 346 344 344 346 344 339 335 338 342 344 346 346 347 347 348 349 349 348 345 337 326 320 319 321 323 323
239 242 246 248 253 256 257 260 262 264 269 273 275 275 273 272 271 267 265 266 269 269 270 271 273 275 278 279 280 283 283 283 284 286 292 298 299 298 300 301 302 305 306 306 307 308 301 296 300 307 315 320 322 326 332 336 336 336 341 343 341 340 341 339 337 337 336 334 336 338 338 339 341 342 345 347 348 346 341 332 323 319 318 319 321
240 241 243 247 254 259 258 259 262 262 264 269 274 278 277 274 273 272 268 267 269 272 274 273 272 273 277 280 281 279 280 282 282 285 289 293 295 296 298 302 305 305 303 301 301 301 297 295 298 301 307 315 317 320 326 332 335 335 334 332 331 334 337 336 334 334 332 332 333 333 332 332 335 338 340 343 345 345 343 337 326 315 309 310 316
239 239 241 244 250 254 254 258 261 260 262 266 271 277 280 279 276 275 274 272 269 271 275 276 274 275 278 281 279 277 279 282 283 284 287 290 294 296 297 303 307 306 303 300 299 298 296 297 299 301 305 311 314 316 320 325 328 325 321 317 317 323 328 330 332 331 329 331 331 327 326 328 329 332 336 338 342 343 341 338 331 317 304 299 303
233 236 237 240 242 244 250 257 259 257 258 261 266 273 279 281 280 277 276 276 272 270 273 275 275 277 280 280 278 278 282 284 285 284 285 287 291 293 295 302 305 304 302 300 297 296 296 297 299 302 303 305 308 312 314 316 314 313 316 315 310 314 317 319 325 327 325 327 327 321 322 325 323 328 332 333 336 340 339 339 337 324 308 295 292
229 232 234 238 241 243 248 253 256 257 256 256 262 266 268 272 274 272 273 277 278 274 274 274 275 276 278 278 280 284 288 288 287 289 290 290 291 293 295 298 300 299 298 297 296 294 294 295 297 300 300 299 303 307 308 309 310 310 312 311 306 311 314 311 318 324 323 325 325 319 321 324 322 325 330 330 330 334 334 335 337 328 314 300 288
227 231 235 239 242 244 247 249 253 254 252 254 259 262 260 259 260 261 265 271 275 275 273 273 274 276 276 279 283 288 292 293 292 294 297 297 297 297 298 299 298 296 292 290 292 293 293 292 292 294 294 293 297 302 304 306 309 308 309 308 305 308 311 309 312 318 320 323 323 316 317 322 323 322 327 331 331 331 330 334 343 339 327 315 296
224 224 229 235 241 247 248 249 250 247 249 257 262 263 261 258 255 256 258 259 261 265 267 269 274 277 279 281 284 285 289 295 297 297 299 303 303 301 299 298 296 293 290 286 285 286 288 289 291 290 288 288 292 296 299 304 308 307 305 304 302 300 302 303 303 306 313 319 318 310 310 317 320 316 318 325 328 326 328 335 340 339 335 327 309
208 204 206 212 224 237 244 247 239 224 246 260 265 265 263 260 256 254 254 256 256 257 260 264 269 275 278 282 286 286 288 295 301 303 302 305 308 306 302 300 298 296 294 288 282 279 277 275 275 275 279 282 282 286 295 300 301 300 299 300 301 298 296 297 296 300 309 315 311 301 302 311 316 310 308 316 322 322 326 332 335 334 333 331 319
182 185 183 183 192 204 235 246 223 205 236 252 259 261 261 261 257 252 251 252 254 256 260 264 267 269 274 279 283 286 289 295 303 306 305 305 306 306 304 303 301 300 299 296 291 287 282 276 270 271 278 282 281 286 295 299 295 291 290 290 293 294 293 296 298 301 308 312 305 291 293 305 313 307 302 311 319 317 320 327 333 334 329 329 326
183 190 191 191 191 186 205 229 216 208 221 233 244 254 254 253 252 249 248 247 248 252 258 264 268 270 273 277 280 283 289 294 299 299 298 297 298 299 300 300 299 297 296 293 289 285 282 280 276 275 280 283 283 286 291 291 288 289 290 289 291 295 295 295 297 299 304 305 296 278 282 299 307 304 301 308 313 312 316 322 329 334 331 327 329
170 186 193 184 175 176 178 188 198 204 215 231 260 260 241 235 235 239 241 243 244 245 249 255 262 265 269 274 277 282 292 298 295 291 289 289 290 293 296 297 296 293 290 290 290 290 288 285 281 280 281 281 282 284 285 281 278 281 286 287 286 289 290 288 288 292 297 296 283 264 279 295 301 299 300 305 306 305 310 313 319 328 333 330 326
151 166 179 175 175 187 194 202 207 193 211 277 270 260 243 221 201 199 217 237 248 248 250 253 256 260 264 266 270 283 302 297 287 288 290 291 293 294 294 295 295 293 291 291 295 297 297 295 293 291 290 289 287 286 284 280 277 277 278 275 274 281 284 285 290 295 298 296 284 267 273 290 298 299 297 300 299 295 298 301 305 317 324 323 320
132 138 148 155 158 158 165 191 194 133 67 301 269 265 264 248 234 228 227 336 295 281 277 273 268 267 268 268 268 273 284 281 281 289 293 295 303 303 298 298 298 296 297 300 301 301 300 300 300 299 298 296 294 290 286 281 278 276 272 269 273 282 283 284 292 296 296 295 287 261 260 287 301 304 301 302 300 291 287 286 286 300 311 315 314
118 123 129 130 124 117 118 123 125 120 98 52 18 329 303 284 270 268 276 294 283 285 287 285 281 279 277 281 283 281 282 286 291 295 293 296 306 307 301 298 294 292 299 303 303 304 303 301 300 299 298 298 297 295 293 289 283 278 273 271 273 275 274 279 288 293 294 295 289 269 274 293 303 304 304 306 304 299 293 281 275 286 300 306 307